MIDAS 6 (FTV 1169)

Satellite information

Favourite Embed

Satellite Type and Status

PAYLOADIN ORBIT

Key statistics

Satellite MIDAS 6 (FTV 1169) at a glance.

Uptime

22865

Days in orbit

Revolutions

≈ 8.7

Per day

Orbit

MEO

Medium Earth Orbit

Inclination

87.3

Latest

Satellite identification and parameters

Extended collection of information and parameters for MIDAS 6 (FTV 1169).

Object identification

Identified? True

Debris? False

Object name: MIDAS 6 (FTV 1169)

International designator: 1963-014A

Object number (NORAD): 574

Object ID (CCSDS): 574

Country: UNITED STATES OF AMERICA (US)

Current information (Y/N): Y

RCS size: LARGE

Orbital parameters

Period: 166.421 minutes

Inclination: 87.3434 deg

SMA: 10022.248 km

Apoapsis: 3675.051 km

Periapsis: 3613.175 km

RAAN: 213.2964 deg

Eccentricy: 0.00308693

Argument of periapsis: 300.6057 deg

Mean anomaly: 59.1754 deg

Mean motion: 8.65276744 rev/day

Mean motion (dot): -0.00000013 rev/day2

B* drag term: -0.0072208078 1/REarth

Two-line elements (TLE)

Creation date: Dec. 14, 2025, 3:07 a.m.

Reference frame: TEME

Reference center: EARTH

Epoch: Dec. 13, 2025, 3:30 p.m. UTC

TLE line 0: 0 MIDAS 6 (FTV 1169)

TLE line 1: 1 00574U 63014A 25347.64636935 -.00000013 00000-0 -72208-2 0 9990

TLE line 2: 2 00574 87.3434 213.2964 0030869 300.6057 59.1754 8.65276744201734

Live tracking on map

Real-time ground track for satellite MIDAS 6 (FTV 1169).

In-orbit conjunctions

There are no conjunctions computed for MIDAS 6 (FTV 1169), at the moment. Check back to stay up to date, as we update our databases every day.

Go to all conjunctions

Associated space launch

MIDAS Series 3 (Military Defense Alarm System) early warning satellite.

MIDAS 6 (FTV 1169) was lifted into orbit during the mission ‘Atlas Agena B | Midas 7’, on board a Atlas Agena B space rocket.

The launch took place on May 9, 1963, 8:06 p.m. from Space Launch Complex 3E.

For more information about the launch, click the button.

Launch to space Atlas Agena B | Midas 7
Atlas Agena B | Midas 7

Agency: N/A

Status: Launch Successful

Launch date: May 9, 1963, 8:06 p.m. UTC

Rocket: Atlas Agena B

Launch pad: Space Launch Complex 3E

Location: Vandenberg SFB, CA, USA

...

Latest news about this satellite

There are no fresh news available about this satellite. Check back as we update our databases every day.


Newsletter sign-up

Weekly statistics, charts and insights to help you stay on top of the space industry.